TimeAKST,TemperatureF,Dew PointF,Humidity,Sea Level PressureIn,VisibilityMPH,Wind Direction,Wind SpeedMPH,Gust SpeedMPH,PrecipitationIn,Events,Conditions,WindDirDegrees,DateUTC
12:00 AM,-20.2,-27.4,69,30.26,8.0,ESE,3.5,-,N/A,,Overcast,120,2013-11-30 09:00:00
12:26 AM,-23.8,-29.2,76,30.26,10.0,ESE,5.8,-,N/A,,Overcast,110,2013-11-30 09:26:00
12:53 AM,-24.0,-29.9,74,30.51,10.0,Calm,Calm,-,N/A,,Mostly Cloudy,0,2013-11-30 09:53:00
1:53 AM,-20.9,-26.0,77,30.52,8.0,Calm,Calm,-,N/A,,Overcast,0,2013-11-30 10:53:00
2:53 AM,-18.9,-24.0,78,30.53,6.0,Calm,Calm,-,0.00,,Haze,0,2013-11-30 11:53:00
3:19 AM,-18.4,-23.8,76,30.32,10.0,Calm,Calm,-,0.00,,Overcast,0,2013-11-30 12:19:00
3:53 AM,-17.0,-22.0,78,30.55,10.0,Calm,Calm,-,0.00,,Overcast,0,2013-11-30 12:53:00
4:22 AM,-16.6,-20.2,84,30.33,2.5,Calm,Calm,-,0.00,Snow,Light Snow,0,2013-11-30 13:22:00
4:36 AM,-16.6,-20.2,84,30.34,3.0,Calm,Calm,-,0.00,Snow,Light Snow,0,2013-11-30 13:36:00
4:53 AM,-16.1,-20.9,79,30.57,10.0,Calm,Calm,-,0.00,,Overcast,0,2013-11-30 13:53:00
5:53 AM,-15.0,-20.9,75,30.60,9.0,Calm,Calm,-,0.00,,Overcast,0,2013-11-30 14:53:00
6:53 AM,-16.1,-22.0,74,30.63,6.0,Calm,Calm,-,0.00,Snow,Light Snow,0,2013-11-30 15:53:00
7:53 AM,-18.0,-24.0,74,30.66,10.0,Calm,Calm,-,0.00,,Mostly Cloudy,0,2013-11-30 16:53:00
8:53 AM,-20.9,-27.0,73,30.68,10.0,South,3.5,-,N/A,,Partly Cloudy,180,2013-11-30 17:53:00
9:53 AM,-24.0,-29.0,77,30.71,10.0,Calm,Calm,-,N/A,,Partly Cloudy,0,2013-11-30 18:53:00
10:53 AM,-25.1,-31.0,74,30.74,10.0,ESE,3.5,-,N/A,,Clear,120,2013-11-30 19:53:00
11:53 AM,-23.1,-27.9,78,30.76,10.0,Calm,Calm,-,N/A,,Partly Cloudy,0,2013-11-30 20:53:00
12:53 PM,-20.9,-26.0,77,30.76,10.0,Calm,Calm,-,N/A,,Partly Cloudy,0,2013-11-30 21:53:00
1:53 PM,-20.0,-25.1,78,30.75,10.0,ESE,4.6,-,N/A,,Scattered Clouds,120,2013-11-30 22:53:00
2:53 PM,-20.0,-25.1,78,30.75,10.0,ESE,4.6,-,N/A,,Scattered Clouds,110,2013-11-30 23:53:00
3:53 PM,-20.9,-26.0,77,30.76,10.0,Calm,Calm,-,N/A,,Scattered Clouds,0,2013-12-01 00:53:00
4:53 PM,-22.0,-26.0,82,30.76,10.0,SSW,3.5,-,N/A,,Scattered Clouds,210,2013-12-01 01:53:00
5:53 PM,-24.0,-29.0,77,30.78,10.0,Calm,Calm,-,N/A,,Scattered Clouds,0,2013-12-01 02:53:00
6:53 PM,-25.1,-29.0,82,30.79,10.0,Calm,Calm,-,N/A,,Scattered Clouds,0,2013-12-01 03:53:00
7:53 PM,-29.0,-35.0,73,30.81,10.0,Calm,Calm,-,N/A,,Scattered Clouds,0,2013-12-01 04:53:00
8:53 PM,-27.9,-33.0,77,30.83,10.0,ESE,3.5,-,N/A,,Scattered Clouds,110,2013-12-01 05:53:00
9:53 PM,-24.0,-31.0,70,30.85,10.0,South,5.8,-,N/A,,Clear,180,2013-12-01 06:53:00
10:53 PM,-24.0,-29.0,77,30.87,10.0,SSW,5.8,-,N/A,,Clear,210,2013-12-01 07:53:00
11:53 PM,-27.0,-32.1,77,30.89,10.0,Calm,Calm,-,N/A,,Clear,0,2013-12-01 08:53:00